sat.trackr.live / text

‹ back to catalog

STARLINK-37292

NORAD 68787 · 2026-086X

PAYLOAD ACTIVE UNKNOWN

§ Identity

Operator
Country
US
Launch date
2026-04-19
Launch site
AFWTR
Launch vehicle
Mass (kg)
RCS (m²)

Purposes: comms

External: N2YO · Heavens-Above · Gunter

§ Orbital elements

Epoch: 2026-05-25T02:27:01.003680Z

Period
92.23 min
Inclination
97.2848°
Eccentricity
0.0000875
Mean motion
15.61238737 rev/d
Perigee alt
383.5 km
Apogee alt
384.7 km
Semi-major
6,762.2 km
B*
-1.0554e-2
RAAN
181.9613°
Arg perigee
33.7393°
Mean anomaly
326.3920°
Rev number
552

§ Raw data

STARLINK-372921 68787U 26086X   26145.10209495 -.00808506  00000+0 -10554-1 0  99902 68787  97.2848 181.9613 0000875  33.7393 326.3920 15.61238737  5523

JSON: /api/v1/satellites/68787 · /tle

For live sub-satellite position, see the globe view (requires WebGL).

§ Visibility from observer

Set your observer location to see the next 7 days of passes ≥ 10°. The values pass through the URL so the page stays shareable.

No JS? Fill the form by hand. The geolocation button needs JavaScript.